Location: Unspecified
(0.0000°N, 0.0000°E)
Time: 08:02:52
(UTC+00:00)

deb r/b Ablestar - Pass Details

Date: 14 February 2026
Orbit: 888 x 1147 km, 67.2° (Epoch: 14 March)

Event Time Altitude Azimuth Distance (km) Brightness Sun altitude
Exits shadow 05:13:47 - 334° (NNW) 3,678 ? -14.7°
Reaches altitude 10° 05:15:48 10° 332° (NNW) 2,962 ? -14.2°
Maximum altitude 05:22:49 66° 251° (WSW) 1,227 ? -12.5°
Drops below altitude 10° 05:30:02 10° 170° (S) 3,040 ? -10.7°
Sets 05:32:46 0° 167° (SSE) 3,997 ? -10.1°
